Notices

What's New in latest Release from April 7th, 2021:

- Updated Glossary, including Speed of Maximum Gust, and Total Hourly Precipitation

- Updated national and regional climate services offices contacts and prices information

- Addition of station inventory lists for 1981-2010, 1971-2000, and 1961-1990 Normals.

If you haven't already, please take our survey and provide feedback about our website: https://eccc.sondage-survey.ca/f/LanguageSelection.aspx?s=442ca660-fcf1-47c0-95a9-59707d6fd709

Hourly Data Report for August 21, 2016

TORONTO CITY
ONTARIO

43°40'00.000" N
79°24'00.000" W
112.50 m
6158355
71508
XTO

Download Data

Hourly Data (August 2016)
Hourly Data Report for August 21, 2016
TIME
LST
Temp Definition
°C
Dew Point Definition
°C
Rel Hum Definition
%
Precip. Amount Definition
mm

Wind Dir Definition
10's deg

Wind Spd Definition
km/h
Visibility Definition
km
Stn Press Definition
kPa
Hmdx Definition


Wind Chill Definition


Weather Definition


00:00 26.5 20.1 68 0.0 LegendMM LegendMM   98.94 34   LegendNANA
01:00 25.7 20.2 72 0.0 LegendMM LegendMM   98.90 33   LegendNANA
02:00 25.6 20.0 71 0.0 LegendMM LegendMM   98.86 33   LegendNANA
03:00 25.3 20.4 74 0.0 LegendMM LegendMM   98.84 33   LegendNANA
04:00 24.9 19.8 73 0.0 LegendMM LegendMM   98.83 32   LegendNANA
05:00 24.5 19.6 74 0.0 LegendMM LegendMM   98.85 32   LegendNANA
06:00 23.9 19.7 78 0.0 LegendMM LegendMM   98.90 31   LegendNANA
07:00 21.9 19.0 84 2.0 LegendMM LegendMM   99.02 29   LegendNANA
08:00 21.6 16.5 73 0.0 LegendMM LegendMM   99.07 27   LegendNANA
09:00 22.7 15.6 64 0.0 LegendMM LegendMM   99.14 27   LegendNANA
10:00 23.9 14.7 56 0.0 LegendMM LegendMM   99.19 28   LegendNANA
11:00 24.4 13.1 49 0.0 LegendMM LegendMM   99.25 27   LegendNANA
12:00 24.4 12.9 49 0.0 LegendMM LegendMM   99.28 27   LegendNANA
13:00 26.2 12.8 44 0.0 LegendMM LegendMM   99.31 29   LegendNANA
14:00 26.5 12.0 41 0.0 LegendMM LegendMM   99.33 29   LegendNANA
15:00 26.3 11.6 40 0.0 LegendMM LegendMM   99.34 28   LegendNANA
16:00 24.6 12.6 47 0.0 LegendMM LegendMM   99.44 27   LegendNANA
17:00 22.7 13.1 55 0.0 LegendMM LegendMM   99.55 26   LegendNANA
18:00 22.2 12.4 54 0.0 LegendMM LegendMM   99.63 25   LegendNANA
19:00 22.0 10.9 49 0.0 LegendMM LegendMM   99.69     LegendNANA
20:00 20.9 9.6 48 0.0 LegendMM LegendMM   99.81     LegendNANA
21:00 20.0 9.6 51 0.0 LegendMM LegendMM   99.90     LegendNANA
22:00 19.2 10.2 56 0.0 LegendMM LegendMM   99.93     LegendNANA
23:00 18.7 10.7 60 0.0 LegendMM LegendMM   100.01     LegendNANA

Notes on Data Quality.

Legend

  • E = Estimated
  • M = Missing
  • NA = Not Available*
  • [empty] = Indicates an unobserved value
Date modified: